Year,Month,Day,Hour,Minute,Value (Times are PST for temperature in C)
2020,05,05,00,00,10.30
2020,05,05,00,01,10.30
2020,05,05,00,02,10.30
2020,05,05,00,03,10.30
2020,05,05,00,04,10.30
2020,05,05,00,05,10.30
2020,05,05,00,06,10.30
2020,05,05,00,07,10.20
2020,05,05,00,08,10.20
2020,05,05,00,09,10.20
2020,05,05,00,10,10.10
2020,05,05,00,11,10.10
2020,05,05,00,12,10.00
2020,05,05,00,13,10.00
2020,05,05,00,14,9.90
2020,05,05,00,15,9.90
2020,05,05,00,16,9.90
2020,05,05,00,17,9.80
2020,05,05,00,18,9.70
2020,05,05,00,19,9.70
2020,05,05,00,20,9.60
2020,05,05,00,21,9.60
2020,05,05,00,22,9.50
2020,05,05,00,23,9.50
2020,05,05,00,24,9.40
2020,05,05,00,25,9.40
2020,05,05,00,26,9.40
2020,05,05,00,27,9.30
2020,05,05,00,28,9.30
2020,05,05,00,29,9.30
2020,05,05,00,30,9.30
2020,05,05,00,31,9.30
2020,05,05,00,32,9.30
2020,05,05,00,33,9.20
2020,05,05,00,34,9.20
2020,05,05,00,35,9.20
2020,05,05,00,36,9.20
2020,05,05,00,37,9.10
2020,05,05,00,38,9.10
2020,05,05,00,39,9.10
2020,05,05,00,40,9.00
2020,05,05,00,41,9.00
2020,05,05,00,42,8.90
2020,05,05,00,43,8.80
2020,05,05,00,44,8.80
2020,05,05,00,45,8.70
2020,05,05,00,46,8.60
2020,05,05,00,47,8.50
2020,05,05,00,48,8.50
2020,05,05,00,49,8.40
2020,05,05,00,50,8.30
2020,05,05,00,51,8.20
2020,05,05,00,52,8.20
2020,05,05,00,53,8.10
2020,05,05,00,54,8.00
2020,05,05,00,55,8.00
2020,05,05,00,56,7.90
2020,05,05,00,57,7.90
2020,05,05,00,58,7.80
2020,05,05,00,59,7.80
2020,05,05,01,00,7.70
2020,05,05,01,01,7.70
2020,05,05,01,02,7.70
2020,05,05,01,03,7.60
2020,05,05,01,04,7.60
2020,05,05,01,05,7.60
2020,05,05,01,06,7.60
2020,05,05,01,07,7.50
2020,05,05,01,08,7.50
2020,05,05,01,09,7.50
2020,05,05,01,10,7.40
2020,05,05,01,11,7.40
2020,05,05,01,12,7.40
2020,05,05,01,13,7.40
2020,05,05,01,14,7.30
2020,05,05,01,15,7.30
2020,05,05,01,16,7.30
2020,05,05,01,17,7.30
2020,05,05,01,18,7.20
2020,05,05,01,19,7.20
2020,05,05,01,20,7.20
2020,05,05,01,21,7.10
2020,05,05,01,22,7.10
2020,05,05,01,23,7.10
2020,05,05,01,24,7.00
2020,05,05,01,25,7.00
2020,05,05,01,26,7.00
2020,05,05,01,27,6.90
2020,05,05,01,28,6.90
2020,05,05,01,29,6.90
2020,05,05,01,30,6.80
2020,05,05,01,31,6.80
2020,05,05,01,32,6.70
2020,05,05,01,33,6.70
2020,05,05,01,34,6.60
2020,05,05,01,35,6.60
2020,05,05,01,36,6.50
2020,05,05,01,37,6.50
2020,05,05,01,38,6.40
2020,05,05,01,39,6.40
2020,05,05,01,40,6.40
2020,05,05,01,41,6.30
2020,05,05,01,42,6.30
2020,05,05,01,43,6.30
2020,05,05,01,44,6.30
2020,05,05,01,45,6.30
2020,05,05,01,46,6.30
2020,05,05,01,47,6.30
2020,05,05,01,48,6.30
2020,05,05,01,49,6.30
2020,05,05,01,50,6.20
2020,05,05,01,51,6.20
2020,05,05,01,52,6.20
2020,05,05,01,53,6.20
2020,05,05,01,54,6.10
2020,05,05,01,55,6.10
2020,05,05,01,56,6.10
2020,05,05,01,57,6.00
2020,05,05,01,58,6.00
2020,05,05,01,59,5.90
2020,05,05,02,00,5.90
2020,05,05,02,01,5.90
2020,05,05,02,02,5.90
2020,05,05,02,03,5.80
2020,05,05,02,04,5.80
2020,05,05,02,05,5.80
2020,05,05,02,06,5.80
2020,05,05,02,07,5.80
2020,05,05,02,08,5.70
2020,05,05,02,09,5.70
2020,05,05,02,10,5.70
2020,05,05,02,11,5.60
2020,05,05,02,12,5.60
2020,05,05,02,13,5.60
2020,05,05,02,14,5.50
2020,05,05,02,15,5.50
2020,05,05,02,16,5.40
2020,05,05,02,17,5.40
2020,05,05,02,18,5.40
2020,05,05,02,19,5.40
2020,05,05,02,20,5.30
2020,05,05,02,21,5.30
2020,05,05,02,22,5.30
2020,05,05,02,23,5.30
2020,05,05,02,24,5.30
2020,05,05,02,25,5.20
2020,05,05,02,26,5.20
2020,05,05,02,27,5.20
2020,05,05,02,28,5.10
2020,05,05,02,29,5.10
2020,05,05,02,30,5.00
2020,05,05,02,31,5.00
2020,05,05,02,32,4.90
2020,05,05,02,33,4.90
2020,05,05,02,34,4.90
2020,05,05,02,35,4.90
2020,05,05,02,36,4.90
2020,05,05,02,37,4.90
2020,05,05,02,38,4.90
2020,05,05,02,39,4.90
2020,05,05,02,40,4.90
2020,05,05,02,41,4.90
2020,05,05,02,42,4.90
2020,05,05,02,43,4.90
2020,05,05,02,44,4.80
2020,05,05,02,45,4.80
2020,05,05,02,46,4.80
2020,05,05,02,47,4.70
2020,05,05,02,48,4.70
2020,05,05,02,49,4.70
2020,05,05,02,50,4.60
2020,05,05,02,51,4.60
2020,05,05,02,52,4.60
2020,05,05,02,53,4.60
2020,05,05,02,54,4.50
2020,05,05,02,55,4.50
2020,05,05,02,56,4.50
2020,05,05,02,57,4.50
2020,05,05,02,58,4.50
2020,05,05,02,59,4.50
2020,05,05,03,00,4.50
2020,05,05,03,01,4.50
2020,05,05,03,02,4.50
2020,05,05,03,03,4.50
2020,05,05,03,04,4.60
2020,05,05,03,05,4.60
2020,05,05,03,06,4.60
2020,05,05,03,07,4.60
2020,05,05,03,08,4.60
2020,05,05,03,09,4.60
2020,05,05,03,10,4.60
2020,05,05,03,11,4.50
2020,05,05,03,12,4.50
2020,05,05,03,13,4.40
2020,05,05,03,14,4.40
2020,05,05,03,15,4.40
2020,05,05,03,16,4.30
2020,05,05,03,17,4.30
2020,05,05,03,18,4.30
2020,05,05,03,19,4.20
2020,05,05,03,20,4.20
2020,05,05,03,21,4.20
2020,05,05,03,22,4.10
2020,05,05,03,23,4.10
2020,05,05,03,24,4.10
2020,05,05,03,25,4.10
2020,05,05,03,26,4.00
2020,05,05,03,27,4.00
2020,05,05,03,28,4.00
2020,05,05,03,29,4.00
2020,05,05,03,30,3.90
2020,05,05,03,31,3.90
2020,05,05,03,32,3.90
2020,05,05,03,33,4.00
2020,05,05,03,34,4.00
2020,05,05,03,35,4.00
2020,05,05,03,36,3.90
2020,05,05,03,37,3.90
2020,05,05,03,38,3.90
2020,05,05,03,39,3.80
2020,05,05,03,40,3.80
2020,05,05,03,41,3.80
2020,05,05,03,42,3.70
2020,05,05,03,43,3.70
2020,05,05,03,44,3.70
2020,05,05,03,45,3.70
2020,05,05,03,46,3.70
2020,05,05,03,47,3.60
2020,05,05,03,48,3.60
2020,05,05,03,49,3.60
2020,05,05,03,50,3.60
2020,05,05,03,51,3.60
2020,05,05,03,52,3.60
2020,05,05,03,53,3.60
2020,05,05,03,54,3.60
2020,05,05,03,55,3.60
2020,05,05,03,56,3.60
2020,05,05,03,57,3.50
2020,05,05,03,58,3.50
2020,05,05,03,59,3.50
2020,05,05,04,00,3.40
2020,05,05,04,01,3.40
2020,05,05,04,02,3.40
2020,05,05,04,03,3.40
2020,05,05,04,04,3.40
2020,05,05,04,05,3.30
2020,05,05,04,06,3.30
2020,05,05,04,07,3.30
2020,05,05,04,08,3.30
2020,05,05,04,09,3.30
2020,05,05,04,10,3.30
2020,05,05,04,11,3.30
2020,05,05,04,12,3.30
2020,05,05,04,13,3.20
2020,05,05,04,14,3.20
2020,05,05,04,15,3.20
2020,05,05,04,16,3.20
2020,05,05,04,17,3.20
2020,05,05,04,18,3.20
2020,05,05,04,19,3.20
2020,05,05,04,20,3.20
2020,05,05,04,21,3.20
2020,05,05,04,22,3.20
2020,05,05,04,23,3.20
2020,05,05,04,24,3.20
2020,05,05,04,25,3.20
2020,05,05,04,26,3.20
2020,05,05,04,27,3.20
2020,05,05,04,28,3.20
2020,05,05,04,29,3.20
2020,05,05,04,30,3.20
2020,05,05,04,31,3.10
2020,05,05,04,32,3.10
2020,05,05,04,33,3.10
2020,05,05,04,34,3.00
2020,05,05,04,35,3.00
2020,05,05,04,36,2.90
2020,05,05,04,37,2.90
2020,05,05,04,38,2.90
2020,05,05,04,39,2.90
2020,05,05,04,40,2.90
2020,05,05,04,41,2.90
2020,05,05,04,42,2.90
2020,05,05,04,43,2.80
2020,05,05,04,44,2.80
2020,05,05,04,45,2.80
2020,05,05,04,46,2.80
2020,05,05,04,47,2.80
2020,05,05,04,48,2.80
2020,05,05,04,49,2.80
2020,05,05,04,50,2.80
2020,05,05,04,51,2.80
2020,05,05,04,52,2.80
2020,05,05,04,53,2.80
2020,05,05,04,54,2.80
2020,05,05,04,55,2.70
2020,05,05,04,56,2.70
2020,05,05,04,57,2.70
2020,05,05,04,58,2.70
2020,05,05,04,59,2.70
2020,05,05,05,00,2.70
2020,05,05,05,01,2.70
2020,05,05,05,02,2.70
2020,05,05,05,03,2.70
2020,05,05,05,04,2.70
2020,05,05,05,05,2.70
2020,05,05,05,06,2.80
2020,05,05,05,07,2.80
2020,05,05,05,08,2.80
2020,05,05,05,09,2.80
2020,05,05,05,10,2.80
2020,05,05,05,11,2.80
2020,05,05,05,12,2.80
2020,05,05,05,13,2.80
2020,05,05,05,14,2.70
2020,05,05,05,15,2.70
2020,05,05,05,16,2.70
2020,05,05,05,17,2.60
2020,05,05,05,18,2.60
2020,05,05,05,19,2.60
2020,05,05,05,20,2.60
2020,05,05,05,21,2.60
2020,05,05,05,22,2.70
2020,05,05,05,23,2.70
2020,05,05,05,24,2.70
2020,05,05,05,25,2.70
2020,05,05,05,26,2.80
2020,05,05,05,27,2.90
2020,05,05,05,28,2.90
2020,05,05,05,29,3.00
2020,05,05,05,30,3.00
2020,05,05,05,31,3.00
2020,05,05,05,32,3.00
2020,05,05,05,33,2.90
2020,05,05,05,34,2.90
2020,05,05,05,35,2.90
2020,05,05,05,36,2.90
2020,05,05,05,37,2.90
2020,05,05,05,38,2.90
2020,05,05,05,39,2.80
2020,05,05,05,40,2.80
2020,05,05,05,41,2.80
2020,05,05,05,42,2.80
2020,05,05,05,43,2.70
2020,05,05,05,44,2.70
2020,05,05,05,45,2.70
2020,05,05,05,46,2.70
2020,05,05,05,47,2.70
2020,05,05,05,48,2.70
2020,05,05,05,49,2.70
2020,05,05,05,50,2.70
2020,05,05,05,51,2.70
2020,05,05,05,52,2.80
2020,05,05,05,53,2.80
2020,05,05,05,54,2.80
2020,05,05,05,55,2.80
2020,05,05,05,56,2.70
2020,05,05,05,57,2.70
2020,05,05,05,58,2.70
2020,05,05,05,59,2.60
2020,05,05,06,00,2.60
2020,05,05,06,01,2.60
2020,05,05,06,02,2.50
2020,05,05,06,03,2.50
2020,05,05,06,04,2.40
2020,05,05,06,05,2.40
2020,05,05,06,06,2.40
2020,05,05,06,07,2.40
2020,05,05,06,08,2.30
2020,05,05,06,09,2.30
2020,05,05,06,10,2.30
2020,05,05,06,11,2.30
2020,05,05,06,12,2.30
2020,05,05,06,13,2.40
2020,05,05,06,14,2.40
2020,05,05,06,15,2.50
2020,05,05,06,16,2.50
2020,05,05,06,17,2.60
2020,05,05,06,18,2.70
2020,05,05,06,19,2.70
2020,05,05,06,20,2.80
2020,05,05,06,21,2.80
2020,05,05,06,22,2.90
2020,05,05,06,23,2.90
2020,05,05,06,24,2.90
2020,05,05,06,25,2.80
2020,05,05,06,26,2.80
2020,05,05,06,27,2.80
2020,05,05,06,28,2.80
2020,05,05,06,29,2.80
2020,05,05,06,30,2.80
2020,05,05,06,31,2.80
2020,05,05,06,32,2.80
2020,05,05,06,33,2.80
2020,05,05,06,34,2.80
2020,05,05,06,35,2.80
2020,05,05,06,36,2.80
2020,05,05,06,37,2.80
2020,05,05,06,38,2.80
2020,05,05,06,39,2.80
2020,05,05,06,40,2.80
2020,05,05,06,41,2.80
2020,05,05,06,42,2.80
2020,05,05,06,43,2.80
2020,05,05,06,44,2.80
2020,05,05,06,45,2.80
2020,05,05,06,46,2.90
2020,05,05,06,47,2.90
2020,05,05,06,48,3.00
2020,05,05,06,49,3.10
2020,05,05,06,50,3.20
2020,05,05,06,51,3.20
2020,05,05,06,52,3.30
2020,05,05,06,53,3.30
2020,05,05,06,54,3.30
2020,05,05,06,55,3.30
2020,05,05,06,56,3.30
2020,05,05,06,57,3.30
2020,05,05,06,58,3.30
2020,05,05,06,59,3.30
2020,05,05,07,00,3.30
2020,05,05,07,01,3.30
2020,05,05,07,02,3.30
2020,05,05,07,03,3.40
2020,05,05,07,04,3.40
2020,05,05,07,05,3.50
2020,05,05,07,06,3.50
2020,05,05,07,07,3.60
2020,05,05,07,08,3.60
2020,05,05,07,09,3.60
2020,05,05,07,10,3.60
2020,05,05,07,11,3.60
2020,05,05,07,12,3.60
2020,05,05,07,13,3.60
2020,05,05,07,14,3.70
2020,05,05,07,15,3.70
2020,05,05,07,16,3.80
2020,05,05,07,17,3.80
2020,05,05,07,18,3.90
2020,05,05,07,19,3.90
2020,05,05,07,20,4.00
2020,05,05,07,21,4.10
2020,05,05,07,22,4.10
2020,05,05,07,23,4.10
2020,05,05,07,24,4.10
2020,05,05,07,25,4.20
2020,05,05,07,26,4.20
2020,05,05,07,27,4.30
2020,05,05,07,28,4.30
2020,05,05,07,29,4.40
2020,05,05,07,30,4.50
2020,05,05,07,31,4.50
2020,05,05,07,32,4.60
2020,05,05,07,33,4.60
2020,05,05,07,34,4.70
2020,05,05,07,35,4.80
2020,05,05,07,36,4.80
2020,05,05,07,37,4.80
2020,05,05,07,38,5.00
2020,05,05,07,39,5.20
2020,05,05,07,40,5.30
2020,05,05,07,41,5.30
2020,05,05,07,42,5.40
2020,05,05,07,43,5.50
2020,05,05,07,44,5.60
2020,05,05,07,45,5.60
2020,05,05,07,46,5.70
2020,05,05,07,47,5.80
2020,05,05,07,48,5.80
2020,05,05,07,49,5.90
2020,05,05,07,50,6.00
2020,05,05,07,51,6.00
2020,05,05,07,52,6.10
2020,05,05,07,53,6.10
2020,05,05,07,54,6.10
2020,05,05,07,55,6.20
2020,05,05,07,56,6.20
2020,05,05,07,57,6.20
2020,05,05,07,58,6.30
2020,05,05,07,59,6.30
2020,05,05,08,00,6.30
2020,05,05,08,01,6.30
2020,05,05,08,02,6.40
2020,05,05,08,03,6.40
2020,05,05,08,04,6.50
2020,05,05,08,05,6.50
2020,05,05,08,06,6.60
2020,05,05,08,07,6.60
2020,05,05,08,08,6.70
2020,05,05,08,09,6.70
2020,05,05,08,10,6.70
2020,05,05,08,11,6.80
2020,05,05,08,12,6.80
2020,05,05,08,13,6.90
2020,05,05,08,14,7.00
2020,05,05,08,15,7.00
2020,05,05,08,16,7.10
2020,05,05,08,17,7.10
2020,05,05,08,18,7.20
2020,05,05,08,19,7.20
2020,05,05,08,20,7.20
2020,05,05,08,21,7.30
2020,05,05,08,22,7.30
2020,05,05,08,23,7.40
2020,05,05,08,24,7.40
2020,05,05,08,25,7.40
2020,05,05,08,26,7.50
2020,05,05,08,27,7.60
2020,05,05,08,28,7.70
2020,05,05,08,29,7.70
2020,05,05,08,30,7.80
2020,05,05,08,31,7.90
2020,05,05,08,32,7.90
2020,05,05,08,33,8.00
2020,05,05,08,34,8.00
2020,05,05,08,35,8.10
2020,05,05,08,36,8.10
2020,05,05,08,37,8.20
2020,05,05,08,38,8.30
2020,05,05,08,39,8.30
2020,05,05,08,40,8.40
2020,05,05,08,41,8.40
2020,05,05,08,42,8.50
2020,05,05,08,43,8.60
2020,05,05,08,44,8.60
2020,05,05,08,45,8.60
2020,05,05,08,46,8.70
2020,05,05,08,47,8.70
2020,05,05,08,48,8.70
2020,05,05,08,49,8.70
2020,05,05,08,50,8.70
2020,05,05,08,51,8.70
2020,05,05,08,52,8.70
2020,05,05,08,53,8.70
2020,05,05,08,54,8.80
2020,05,05,08,55,8.90
2020,05,05,08,56,9.00
2020,05,05,08,57,9.10
2020,05,05,08,58,9.10
2020,05,05,08,59,9.10
2020,05,05,09,00,9.10
2020,05,05,09,01,9.10
2020,05,05,09,02,9.20
2020,05,05,09,03,9.30
2020,05,05,09,04,9.30
2020,05,05,09,05,9.40
2020,05,05,09,06,9.50
2020,05,05,09,07,9.60
2020,05,05,09,08,9.70
2020,05,05,09,09,9.80
2020,05,05,09,10,9.90
2020,05,05,09,11,10.00
2020,05,05,09,12,10.10
2020,05,05,09,13,10.20
2020,05,05,09,14,10.20
2020,05,05,09,15,10.30
2020,05,05,09,16,10.40
2020,05,05,09,17,10.50
2020,05,05,09,18,10.60
2020,05,05,09,19,10.60
2020,05,05,09,20,10.70
2020,05,05,09,21,10.70
2020,05,05,09,22,10.70
2020,05,05,09,23,10.80
2020,05,05,09,24,10.80
2020,05,05,09,25,10.90
2020,05,05,09,26,11.00
2020,05,05,09,27,11.10
2020,05,05,09,28,11.10
2020,05,05,09,29,11.20
2020,05,05,09,30,11.30
2020,05,05,09,31,11.30
2020,05,05,09,32,11.40
2020,05,05,09,33,11.40
2020,05,05,09,34,11.50
2020,05,05,09,35,11.50
2020,05,05,09,36,11.50
2020,05,05,09,37,11.50
2020,05,05,09,38,11.60
2020,05,05,09,39,11.60
2020,05,05,09,40,11.60
2020,05,05,09,41,11.60
2020,05,05,09,42,11.60
2020,05,05,09,43,11.70
2020,05,05,09,44,11.70
2020,05,05,09,45,11.70
2020,05,05,09,46,11.80
2020,05,05,09,47,11.80
2020,05,05,09,48,11.80
2020,05,05,09,49,11.90
2020,05,05,09,50,11.90
2020,05,05,09,51,11.90
2020,05,05,09,52,11.90
2020,05,05,09,53,11.90
2020,05,05,09,54,12.00
2020,05,05,09,55,12.00
2020,05,05,09,56,12.10
2020,05,05,09,57,12.10
2020,05,05,09,58,12.10
2020,05,05,09,59,12.20
2020,05,05,10,00,12.20
2020,05,05,10,01,12.20
2020,05,05,10,02,12.20
2020,05,05,10,03,12.30
2020,05,05,10,04,12.30
2020,05,05,10,05,12.30
2020,05,05,10,06,12.30
2020,05,05,10,07,12.30
2020,05,05,10,08,12.40
2020,05,05,10,09,12.40
2020,05,05,10,10,12.40
2020,05,05,10,11,12.50
2020,05,05,10,12,12.40
2020,05,05,10,13,12.40
2020,05,05,10,14,12.40
2020,05,05,10,15,12.40
2020,05,05,10,16,12.40
2020,05,05,10,17,12.40
2020,05,05,10,18,12.50
2020,05,05,10,19,12.60
2020,05,05,10,20,12.60
2020,05,05,10,21,12.60
2020,05,05,10,22,12.60
2020,05,05,10,23,12.50
2020,05,05,10,24,12.40
2020,05,05,10,25,12.40
2020,05,05,10,26,12.40
2020,05,05,10,27,12.40
2020,05,05,10,28,12.40
2020,05,05,10,29,12.50
2020,05,05,10,30,12.60
2020,05,05,10,31,12.70
2020,05,05,10,32,12.70
2020,05,05,10,33,12.80
2020,05,05,10,34,12.80
2020,05,05,10,35,12.80
2020,05,05,10,36,12.80
2020,05,05,10,37,12.80
2020,05,05,10,38,12.80
2020,05,05,10,39,12.80
2020,05,05,10,40,12.80
2020,05,05,10,41,12.80
2020,05,05,10,42,12.80
2020,05,05,10,43,12.80
2020,05,05,10,44,12.80
2020,05,05,10,45,12.80
2020,05,05,10,46,12.80
2020,05,05,10,47,12.80
2020,05,05,10,48,12.70
2020,05,05,10,49,12.80
2020,05,05,10,50,12.80
2020,05,05,10,51,12.90
2020,05,05,10,52,12.90
2020,05,05,10,53,12.90
2020,05,05,10,54,12.90
2020,05,05,10,55,12.90
2020,05,05,10,56,12.90
2020,05,05,10,57,12.90
2020,05,05,10,58,12.90
2020,05,05,10,59,12.90
2020,05,05,11,00,12.90
2020,05,05,11,01,12.90
2020,05,05,11,02,12.80
2020,05,05,11,03,12.80
2020,05,05,11,04,12.80
2020,05,05,11,05,12.70
2020,05,05,11,06,12.70
2020,05,05,11,07,12.60
2020,05,05,11,08,12.50
2020,05,05,11,09,12.40
2020,05,05,11,10,12.40
2020,05,05,11,11,12.50
2020,05,05,11,12,12.50
2020,05,05,11,13,12.60
2020,05,05,11,14,12.70
2020,05,05,11,15,12.60
2020,05,05,11,16,12.60
2020,05,05,11,17,12.60
2020,05,05,11,18,12.60
2020,05,05,11,19,12.60
2020,05,05,11,20,12.60
2020,05,05,11,21,12.60
2020,05,05,11,22,12.60
2020,05,05,11,23,12.60
2020,05,05,11,24,12.60
2020,05,05,11,25,12.70
2020,05,05,11,26,12.70
2020,05,05,11,27,12.70
2020,05,05,11,28,12.80
2020,05,05,11,29,12.70
2020,05,05,11,30,12.70
2020,05,05,11,31,12.70
2020,05,05,11,32,12.70
2020,05,05,11,33,12.70
2020,05,05,11,34,12.80
2020,05,05,11,35,12.80
2020,05,05,11,36,12.80
2020,05,05,11,37,12.90
2020,05,05,11,38,13.00
2020,05,05,11,39,13.00
2020,05,05,11,40,13.00
2020,05,05,11,41,13.00
2020,05,05,11,42,13.00
2020,05,05,11,43,12.90
2020,05,05,11,44,12.80
2020,05,05,11,45,12.80
2020,05,05,11,46,12.80
2020,05,05,11,47,12.80
2020,05,05,11,48,12.80
2020,05,05,11,49,12.80
2020,05,05,11,50,12.90
2020,05,05,11,51,13.00
2020,05,05,11,52,13.00
2020,05,05,11,53,13.10
2020,05,05,11,54,13.10
2020,05,05,11,55,13.00
2020,05,05,11,56,12.90
2020,05,05,11,57,12.80
2020,05,05,11,58,12.80
2020,05,05,11,59,12.80
2020,05,05,12,00,12.90
2020,05,05,12,01,12.90
2020,05,05,12,02,13.00
2020,05,05,12,03,13.00
2020,05,05,12,04,13.10
2020,05,05,12,05,13.10
2020,05,05,12,06,13.10
2020,05,05,12,07,13.10
2020,05,05,12,08,13.00
2020,05,05,12,09,12.90
2020,05,05,12,10,12.80
2020,05,05,12,11,12.80
2020,05,05,12,12,12.70
2020,05,05,12,13,12.70
2020,05,05,12,14,12.70
2020,05,05,12,15,12.80
2020,05,05,12,16,12.90
2020,05,05,12,17,13.10
2020,05,05,12,18,13.10
2020,05,05,12,19,13.20
2020,05,05,12,20,13.20
2020,05,05,12,21,13.30
2020,05,05,12,22,13.20
2020,05,05,12,23,13.20
2020,05,05,12,24,13.10
2020,05,05,12,25,13.10
2020,05,05,12,26,13.00
2020,05,05,12,27,12.90
2020,05,05,12,28,12.90
2020,05,05,12,29,12.80
2020,05,05,12,30,12.80
2020,05,05,12,31,12.80
2020,05,05,12,32,12.80
2020,05,05,12,33,12.80
2020,05,05,12,34,13.00
2020,05,05,12,35,13.10
2020,05,05,12,36,13.20
2020,05,05,12,37,13.30
2020,05,05,12,38,13.30
2020,05,05,12,39,13.40
2020,05,05,12,40,13.50
2020,05,05,12,41,13.60
2020,05,05,12,42,13.60
2020,05,05,12,43,13.70
2020,05,05,12,44,13.70
2020,05,05,12,45,13.80
2020,05,05,12,46,13.80
2020,05,05,12,47,13.80
2020,05,05,12,48,13.70
2020,05,05,12,49,13.60
2020,05,05,12,50,13.50
2020,05,05,12,51,13.40
2020,05,05,12,52,13.30
2020,05,05,12,53,13.30
2020,05,05,12,54,13.30
2020,05,05,12,55,13.30
2020,05,05,12,56,13.30
2020,05,05,12,57,13.30
2020,05,05,12,58,13.30
2020,05,05,12,59,13.30
2020,05,05,13,00,13.20
2020,05,05,13,01,13.20
2020,05,05,13,02,13.20
2020,05,05,13,03,13.30
2020,05,05,13,04,13.30
2020,05,05,13,05,13.30
2020,05,05,13,06,13.30
2020,05,05,13,07,13.40
2020,05,05,13,08,13.50
2020,05,05,13,09,13.50
2020,05,05,13,10,13.60
2020,05,05,13,11,13.60
2020,05,05,13,12,13.70
2020,05,05,13,13,13.80
2020,05,05,13,14,13.90
2020,05,05,13,15,13.90
2020,05,05,13,16,13.90
2020,05,05,13,17,13.80
2020,05,05,13,18,13.80
2020,05,05,13,19,13.80
2020,05,05,13,20,13.80
2020,05,05,13,21,13.80
2020,05,05,13,22,13.70
2020,05,05,13,23,13.70
2020,05,05,13,24,13.70
2020,05,05,13,25,13.70
2020,05,05,13,26,13.70
2020,05,05,13,27,13.60
2020,05,05,13,28,13.60
2020,05,05,13,29,13.50
2020,05,05,13,30,13.50
2020,05,05,13,31,13.50
2020,05,05,13,32,13.50
2020,05,05,13,33,13.60
2020,05,05,13,34,13.70
2020,05,05,13,35,13.80
2020,05,05,13,36,13.90
2020,05,05,13,37,14.00
2020,05,05,13,38,14.00
2020,05,05,13,39,14.10
2020,05,05,13,40,14.20
2020,05,05,13,41,14.30
2020,05,05,13,42,14.40
2020,05,05,13,43,14.50
2020,05,05,13,44,14.60
2020,05,05,13,45,14.70
2020,05,05,13,46,14.70
2020,05,05,13,47,14.80
2020,05,05,13,48,14.80
2020,05,05,13,49,14.80
2020,05,05,13,50,14.80
2020,05,05,13,51,14.80
2020,05,05,13,52,14.80
2020,05,05,13,53,14.80
2020,05,05,13,54,14.80
2020,05,05,13,55,14.70
2020,05,05,13,56,14.70
2020,05,05,13,57,14.70
2020,05,05,13,58,14.70
2020,05,05,13,59,14.80
2020,05,05,14,00,14.70
2020,05,05,14,01,14.70
2020,05,05,14,02,14.70
2020,05,05,14,03,14.70
2020,05,05,14,04,14.70
2020,05,05,14,05,14.70
2020,05,05,14,06,14.70
2020,05,05,14,07,14.70
2020,05,05,14,08,14.70
2020,05,05,14,09,14.70
2020,05,05,14,10,14.70
2020,05,05,14,11,14.70
2020,05,05,14,12,14.70
2020,05,05,14,13,14.80
2020,05,05,14,14,14.80
2020,05,05,14,15,14.80
2020,05,05,14,16,14.80
2020,05,05,14,17,14.80
2020,05,05,14,18,14.80
2020,05,05,14,19,14.80
2020,05,05,14,20,14.80
2020,05,05,14,21,14.90
2020,05,05,14,22,14.90
2020,05,05,14,23,15.00
2020,05,05,14,24,15.00
2020,05,05,14,25,15.00
2020,05,05,14,26,14.90
2020,05,05,14,27,14.90
2020,05,05,14,28,14.90
2020,05,05,14,29,14.80
2020,05,05,14,30,14.80
2020,05,05,14,31,14.70
2020,05,05,14,32,14.70
2020,05,05,14,33,14.70
2020,05,05,14,34,14.70
2020,05,05,14,35,14.60
2020,05,05,14,36,14.60
2020,05,05,14,37,14.60
2020,05,05,14,38,14.70
2020,05,05,14,39,14.70
2020,05,05,14,40,14.80
2020,05,05,14,41,14.80
2020,05,05,14,42,14.80
2020,05,05,14,43,14.80
2020,05,05,14,44,14.80
2020,05,05,14,45,14.70
2020,05,05,14,46,14.70
2020,05,05,14,47,14.70
2020,05,05,14,48,14.70
2020,05,05,14,49,14.80
2020,05,05,14,50,14.80
2020,05,05,14,51,14.80
2020,05,05,14,52,14.80
2020,05,05,14,53,14.80
2020,05,05,14,54,14.80
2020,05,05,14,55,14.80
2020,05,05,14,56,14.70
2020,05,05,14,57,14.70
2020,05,05,14,58,14.60
2020,05,05,14,59,14.60
2020,05,05,15,00,14.60
2020,05,05,15,01,14.70
2020,05,05,15,02,14.70
2020,05,05,15,03,14.70
2020,05,05,15,04,14.70
2020,05,05,15,05,14.70
2020,05,05,15,06,14.70
2020,05,05,15,07,14.80
2020,05,05,15,08,14.80
2020,05,05,15,09,14.90
2020,05,05,15,10,15.00
2020,05,05,15,11,15.10
2020,05,05,15,12,15.10
2020,05,05,15,13,15.10
2020,05,05,15,14,15.10
2020,05,05,15,15,15.10
2020,05,05,15,16,15.10
2020,05,05,15,17,15.10
2020,05,05,15,18,15.20
2020,05,05,15,19,15.30
2020,05,05,15,20,15.30
2020,05,05,15,21,15.40
2020,05,05,15,22,15.40
2020,05,05,15,23,15.50
2020,05,05,15,24,15.50
2020,05,05,15,25,15.40
2020,05,05,15,26,15.40
2020,05,05,15,27,15.30
2020,05,05,15,28,15.20
2020,05,05,15,29,15.20
2020,05,05,15,30,15.20
2020,05,05,15,31,15.20
2020,05,05,15,32,15.10
2020,05,05,15,33,15.20
2020,05,05,15,34,15.20
2020,05,05,15,35,15.20
2020,05,05,15,36,15.20
2020,05,05,15,37,15.20
2020,05,05,15,38,15.30
2020,05,05,15,39,15.30
2020,05,05,15,40,15.30
2020,05,05,15,41,15.30
2020,05,05,15,42,15.30
2020,05,05,15,43,15.30
2020,05,05,15,44,15.30
2020,05,05,15,45,15.40
2020,05,05,15,46,15.40
2020,05,05,15,47,15.40
2020,05,05,15,48,15.30
2020,05,05,15,49,15.30
2020,05,05,15,50,15.40
2020,05,05,15,51,15.40
2020,05,05,15,52,15.40
2020,05,05,15,53,15.40
2020,05,05,15,54,15.40
2020,05,05,15,55,15.40
2020,05,05,15,56,15.40
2020,05,05,15,57,15.40
2020,05,05,15,58,15.40
2020,05,05,15,59,15.40
2020,05,05,16,00,15.50
2020,05,05,16,01,15.50
2020,05,05,16,02,15.60
2020,05,05,16,03,15.70
2020,05,05,16,04,15.70
2020,05,05,16,05,15.70
2020,05,05,16,06,15.70
2020,05,05,16,07,15.80
2020,05,05,16,08,15.80
2020,05,05,16,09,15.90
2020,05,05,16,10,16.00
2020,05,05,16,11,16.00
2020,05,05,16,12,16.10
2020,05,05,16,13,16.10
2020,05,05,16,14,16.20
2020,05,05,16,15,16.30
2020,05,05,16,16,16.30
2020,05,05,16,17,16.30
2020,05,05,16,18,16.30
2020,05,05,16,19,16.30
2020,05,05,16,20,16.40
2020,05,05,16,21,16.40
2020,05,05,16,22,16.40
2020,05,05,16,23,16.40
2020,05,05,16,24,16.40
2020,05,05,16,25,16.30
2020,05,05,16,26,16.30
2020,05,05,16,27,16.40
2020,05,05,16,28,16.40
2020,05,05,16,29,16.50
2020,05,05,16,30,16.60
2020,05,05,16,31,16.60
2020,05,05,16,32,16.60
2020,05,05,16,33,16.50
2020,05,05,16,34,16.50
2020,05,05,16,35,16.40
2020,05,05,16,36,16.40
2020,05,05,16,37,16.40
2020,05,05,16,38,16.40
2020,05,05,16,39,16.40
2020,05,05,16,40,16.50
2020,05,05,16,41,16.50
2020,05,05,16,42,16.60
2020,05,05,16,43,16.60
2020,05,05,16,44,16.50
2020,05,05,16,45,16.40
2020,05,05,16,46,16.40
2020,05,05,16,47,16.40
2020,05,05,16,48,16.40
2020,05,05,16,49,16.40
2020,05,05,16,50,16.30
2020,05,05,16,51,16.30
2020,05,05,16,52,16.30
2020,05,05,16,53,16.30
2020,05,05,16,54,16.30
2020,05,05,16,55,16.30
2020,05,05,16,56,16.30
2020,05,05,16,57,16.30
2020,05,05,16,58,16.30
2020,05,05,16,59,16.30
2020,05,05,17,00,16.30
2020,05,05,17,01,16.30
2020,05,05,17,02,16.20
2020,05,05,17,03,16.20
2020,05,05,17,04,16.20
2020,05,05,17,05,16.10
2020,05,05,17,06,16.10
2020,05,05,17,07,16.10
2020,05,05,17,08,16.10
2020,05,05,17,09,16.10
2020,05,05,17,10,16.10
2020,05,05,17,11,16.10
2020,05,05,17,12,16.10
2020,05,05,17,13,16.20
2020,05,05,17,14,16.10
2020,05,05,17,15,16.10
2020,05,05,17,16,16.10
2020,05,05,17,17,16.10
2020,05,05,17,18,16.20
2020,05,05,17,19,16.30
2020,05,05,17,20,16.30
2020,05,05,17,21,16.30
2020,05,05,17,22,16.20
2020,05,05,17,23,16.20
2020,05,05,17,24,16.20
2020,05,05,17,25,16.20
2020,05,05,17,26,16.20
2020,05,05,17,27,16.20
2020,05,05,17,28,16.20
2020,05,05,17,29,16.20
2020,05,05,17,30,16.30
2020,05,05,17,31,16.30
2020,05,05,17,32,16.30
2020,05,05,17,33,16.30
2020,05,05,17,34,16.30
2020,05,05,17,35,16.30
2020,05,05,17,36,16.30
2020,05,05,17,37,16.20
2020,05,05,17,38,16.20
2020,05,05,17,39,16.20
2020,05,05,17,40,16.20
2020,05,05,17,41,16.20
2020,05,05,17,42,16.10